Flag for Norway Weather past 2 weeks in Ålgård, Norway

Now
48 °F

Scattered showers. Partly cloudy.


Feels Like: 44 °F
Forecast: 40 / 48 °F
Wind: 10 mph from Southeast

Location: Stavanger / Sola

Current Time: May 7, 2015 at 2:39:02 AM

Latest Report: May 7, 2015 at 1:50 AM


Visibility: N/A

Pressure: 29.45 "Hg

Humidity: 82%

Dew point: 43 °F

Location of ÅlgårdLocation

Historic Weather in Ålgård — Graph

°F

Ålgård temperature yesterday

Maximum temperature yesterday: 55 °F (at 1:20 PM)
Minimum temperature yesterday: 48 °F (at 12:20 AM)
Average temperature yesterday: 51 °F

Past Weeks' High & Low Weather Summary

 TemperatureHumidityPressure
High61 °F (May 5, 4:50 PM)100% (Apr 23, 1:50 AM)30.42 "Hg (Apr 23, 1:50 AM)
Low34 °F (May 3, 4:50 AM)32% (Apr 28, 5:20 PM)29.15 "Hg (May 5, 4:50 PM)
Average46 °F76%29.71 "Hg
* Reported Apr 22 12:20 AM — May 7 12:50 AM, Ålgård, Weather by CustomWeather, © 2015

Note: Actual official high and low records may vary slightly from our data, if they occured in-between our weather recording intervals... More about our weather records

Advertising

Ålgård weather history for previous 24 hours

 ConditionsComfort  
Time TempWeatherWind HumidityBarometerVisibility
12:50 AM
Thu, May 7
50 °FPartly cloudy.13 mph76%29.45 "HgN/A
11:50 PM
Wed, May 6
48 °FScattered showers. Partly cloudy.14 mph82%29.47 "HgN/A
10:50 PM50 °FScattered showers. Partly cloudy.15 mph76%29.47 "HgN/A
10:20 PM48 °FScattered showers. Broken clouds.14 mph82%29.47 "HgN/A
9:50 PM48 °FPartly sunny.17 mph82%29.47 "HgN/A
9:20 PM50 °FBroken clouds.16 mph82%29.47 "HgN/A
8:50 PM50 °FScattered showers. Partly sunny.18 mph88%29.47 "HgN/A
8:20 PM50 °FDrizzle. Partly sunny.16 mph88%29.47 "Hg6 mi
7:50 PM50 °FScattered showers. Broken clouds.17 mph88%29.47 "Hg6 mi
7:20 PM50 °FLight rain. Partly sunny.17 mph88%29.47 "HgN/A
6:50 PM50 °FLight rain. Partly sunny.17 mph88%29.50 "HgN/A
6:20 PM52 °FScattered showers. Partly sunny.17 mph82%29.50 "HgN/A
5:50 PM52 °FScattered showers. Partly sunny.18 mph82%29.50 "HgN/A
5:20 PM52 °FLight rain. Partly sunny.18 mph82%29.50 "HgN/A
4:50 PM52 °FPartly sunny.18 mph82%29.50 "HgN/A
4:20 PM54 °FPartly sunny.17 mph77%29.50 "HgN/A
3:50 PM52 °FPartly sunny.20 mph82%29.50 "HgN/A
3:20 PM52 °FLight rain. Broken clouds.15 mph82%29.50 "HgN/A
2:50 PM54 °FSprinkles. Partly sunny.22 mph77%29.50 "HgN/A
2:20 PM55 °FBroken clouds.21 mph72%29.50 "HgN/A
1:50 PM54 °FPartly sunny.21 mph77%29.50 "HgN/A
1:20 PM55 °FScattered clouds.21 mph72%29.47 "HgN/A
12:50 PM54 °FScattered clouds.18 mph77%29.47 "HgN/A
12:20 PM54 °FScattered clouds.20 mph72%29.50 "HgN/A
11:50 AM54 °FScattered clouds.18 mph72%29.47 "HgN/A
11:20 AM54 °FPartly sunny.20 mph72%29.47 "HgN/A
10:50 AM52 °FBroken clouds.18 mph77%29.47 "HgN/A
10:20 AM52 °FPartly sunny.20 mph82%29.47 "HgN/A
9:50 AM50 °FPartly sunny.20 mph82%29.45 "HgN/A
9:20 AM50 °FPartly sunny.18 mph82%29.45 "HgN/A
8:50 AM50 °FBroken clouds.20 mph88%29.45 "HgN/A
8:20 AM50 °FPartly sunny.17 mph88%29.45 "HgN/A
7:50 AM50 °FPartly sunny.18 mph82%29.42 "HgN/A
7:20 AM50 °FPartly sunny.17 mph82%29.42 "HgN/A
6:50 AM50 °FPartly sunny.18 mph82%29.42 "HgN/A
6:20 AM50 °FPassing clouds.15 mph82%29.42 "HgN/A
5:50 AM50 °FPassing clouds.15 mph82%29.42 "HgN/A
4:50 AM50 °FPassing clouds.15 mph82%29.42 "HgN/A
3:50 AM48 °FPassing clouds.15 mph87%29.42 "HgN/A
2:50 AM48 °FPassing clouds.15 mph82%29.42 "HgN/A
Weather by CustomWeather, © 2015

See weather overviewHow to use our weather pages